Home   Weather   State College   Past weeks

Flag for USA Past Weather in State College, Pennsylvania, USA — Yesterday and Last 2 Weeks

Now
43 °F

Passing clouds.


Feels Like: 43 °F
Forecast: 44 / 67 °F
Wind: No wind

Location: University Park Airport

Current Time: Sep 25, 2016 at 6:33:21 AM

Latest Report: Sep 25, 2016 at 5:53 AM


Visibility: 10 mi

Pressure: 30.23 "Hg

Humidity: 100%

Dew Point: 43 °F

Location of State CollegeLocation

Past Weather in State College — Graph

°F

State College Temperature Yesterday

Maximum temperature yesterday: 70 °F (at 2:53 PM)
Minimum temperature yesterday: 54 °F (at 11:55 PM)
Average temperature yesterday: 62 °F

High & Low Weather Summary for the Past Weeks

 TemperatureHumidityPressure
High88 °F (Sep 10, 3:53 PM)100% (Sep 10, 5:53 AM)30.32 "Hg (Sep 10, 5:53 AM)
Low46 °F (Sep 25, 4:35 AM)18% (Sep 22, 3:53 PM)29.89 "Hg (Sep 10, 6:53 PM)
Average65 °F77%30.15 "Hg
* Reported Sep 10 5:15 AM — Sep 25 5:15 AM, State College, Weather by CustomWeather, © 2016

Note: Actual official high and low records may vary slightly from our data, if they occured in-between our weather recording intervals... More about our weather records

Advertising

State College Weather History for the Previous 24 Hours

Scroll right to see more
 ConditionsComfort  
Time TempWeatherWind HumidityBarometerVisibility
5:15 AM
Sun, Sep 25
48 °FPassing clouds.No wind86%30.23 "Hg10 mi
4:55 AM47 °FPassing clouds.No wind89%30.23 "Hg10 mi
4:35 AM46 °FClear.No wind93%30.22 "Hg10 mi
4:15 AM47 °FClear.No wind88%30.22 "Hg10 mi
3:55 AM48 °FClear.No wind87%30.22 "Hg10 mi
3:15 AM49 °FClear.No wind82%30.21 "Hg10 mi
2:55 AM49 °FClear.No wind85%30.21 "Hg10 mi
2:15 AM50 °FPassing clouds.No wind82%30.22 "Hg10 mi
1:55 AM49 °FClear.5 mph85%30.23 "Hg10 mi
1:35 AM50 °FClear.6 mph84%30.22 "Hg10 mi
1:15 AM51 °FClear.7 mph83%30.21 "Hg10 mi
12:55 AM51 °FClear.6 mph81%30.21 "Hg10 mi
12:35 AM52 °FPassing clouds.No wind77%30.21 "Hg10 mi
12:15 AM53 °FPassing clouds.5 mph73%30.20 "Hg10 mi
11:55 PM
Sat, Sep 24
54 °FPassing clouds.6 mph71%30.20 "Hg10 mi
11:15 PM55 °FPassing clouds.5 mph67%30.20 "Hg10 mi
10:55 PM55 °FPassing clouds.6 mph69%30.20 "Hg10 mi
10:15 PM57 °FClear.No wind65%30.20 "Hg10 mi
9:55 PM57 °FPassing clouds.5 mph65%30.19 "Hg10 mi
8:53 PM57 °FPassing clouds.10 mph67%30.18 "Hg10 mi
7:53 PM61 °FClear.No wind63%30.15 "Hg10 mi
6:53 PM66 °FSunny.3 mph46%30.15 "Hg10 mi
5:53 PM70 °FSunny.6 mph40%30.13 "Hg10 mi
4:53 PM70 °FSunny.6 mph40%30.13 "Hg10 mi
3:53 PM70 °FSunny.6 mph40%30.13 "Hg10 mi
2:53 PM70 °FSunny.6 mph43%30.15 "Hg10 mi
1:53 PM68 °FSunny.6 mph43%30.17 "Hg10 mi
12:53 PM66 °FSunny.8 mph49%30.18 "Hg10 mi
11:53 AM63 °FSunny.9 mph56%30.18 "Hg10 mi
10:53 AM59 °FOvercast.10 mph63%30.20 "Hg10 mi
9:53 AM59 °FOvercast.10 mph63%30.19 "Hg10 mi
8:59 AM59 °FMostly cloudy.10 mph63%30.18 "Hg10 mi
7:53 AM57 °FMostly cloudy.8 mph67%30.17 "Hg10 mi
6:53 AM57 °FOvercast.9 mph72%30.15 "Hg10 mi
Weather by CustomWeather, © 2016

See weather overviewHow to use our weather pages